HSKSAT

Last updated on Fri Jul 07 2023 00:02:14 GMT+0000 (Coordinated Universal Time)

1 55182U 98067UZ 23187.14489742 .04572960 12217-4 80263-3 0 9993 2 55182 51.6072 206.6236 0003978 328.8940 31.1847 16.31978226 28425

Satellite not in orbit